Météo par heure à Aaruti

Ce jour, 1 Décembre, Mardi

Heure Température Précipitation Vent Pression Humidité
00:00 -1°C° 0 mm 1 m/s 720 mmHg 78%
01:00 -1°C° 0 mm 1 m/s 720 mmHg 76%
02:00 -1°C° 0.3 mm 1 m/s 719 mmHg 79%
03:00 0°C° 0.3 mm 1 m/s 719 mmHg 82%
04:00 0°C° 0.3 mm 1 m/s 718 mmHg 86%
05:00 0°C° 1.1 mm 1 m/s 718 mmHg 89%
06:00 +1°C° 1.1 mm 1 m/s 717 mmHg 92%
07:00 -1°C° 1.1 mm 2 m/s 717 mmHg 96%
08:00 -1°C° 1.2 mm 2 m/s 717 mmHg 96%
09:00 +1°C° 1.2 mm 2 m/s 717 mmHg 96%
10:00 +1°C° 1.2 mm 2 m/s 716 mmHg 97%
11:00 +2°C° 0.3 mm 2 m/s 716 mmHg 96%
12:00 +3°C° 0.3 mm 1 m/s 716 mmHg 96%
13:00 +3°C° 0.3 mm 1 m/s 716 mmHg 95%
14:00 +3°C° 0 mm 1 m/s 716 mmHg 96%
15:00 +3°C° 0 mm 1 m/s 716 mmHg 97%
16:00 +2°C° 0 mm 0 m/s 716 mmHg 98%
17:00 +1°C° 0 mm 0 m/s 716 mmHg 98%
18:00 +1°C° 0 mm 0 m/s 717 mmHg 98%
19:00 0°C° 0 mm 0 m/s 717 mmHg 98%
20:00 0°C° 0 mm 0 m/s 717 mmHg 98%
21:00 0°C° 0 mm 0 m/s 717 mmHg 98%
22:00 0°C° 0 mm 0 m/s 717 mmHg 98%
23:00 +1°C° 0 mm 1 m/s 717 mmHg 98%

Demain, 2 Décembre, Mercredi

Heure Température Précipitation Vent Pression Humidité
00:00 +1°C° 0 mm 1 m/s 717 mmHg 98%
01:00 +1°C° 0 mm 1 m/s 717 mmHg 98%
02:00 +1°C° 0.1 mm 1 m/s 717 mmHg 98%
03:00 +1°C° 0.1 mm 1 m/s 717 mmHg 98%
04:00 +1°C° 0.1 mm 1 m/s 716 mmHg 98%
05:00 +1°C° 0 mm 1 m/s 716 mmHg 98%
06:00 +1°C° 0 mm 1 m/s 716 mmHg 97%
07:00 +1°C° 0 mm 1 m/s 716 mmHg 97%
08:00 +1°C° 0.1 mm 1 m/s 716 mmHg 96%
09:00 +1°C° 0.1 mm 1 m/s 716 mmHg 96%
10:00 +2°C° 0.1 mm 1 m/s 716 mmHg 95%
11:00 +2°C° 0 mm 1 m/s 715 mmHg 93%
12:00 +2°C° 0 mm 2 m/s 715 mmHg 91%
13:00 +2°C° 0 mm 2 m/s 715 mmHg 89%
14:00 +3°C° 0 mm 1 m/s 714 mmHg 90%
15:00 +2°C° 0 mm 1 m/s 714 mmHg 92%
16:00 +2°C° 0 mm 1 m/s 714 mmHg 93%
17:00 +1°C° 0 mm 1 m/s 714 mmHg 94%
18:00 0°C° 0 mm 0 m/s 714 mmHg 95%
19:00 -1°C° 0 mm 0 m/s 715 mmHg 95%
20:00 -1°C° 0 mm 0 m/s 715 mmHg 96%
21:00 -1°C° 0 mm 0 m/s 715 mmHg 96%
22:00 -2°C° 0 mm 0 m/s 715 mmHg 96%
23:00 -2°C° 0 mm 0 m/s 714 mmHg 97%

Après-demain, 3 Décembre, Jeudi

Heure Température Précipitation Vent Pression Humidité
00:00 -2°C° 0 mm 0 m/s 714 mmHg 97%
01:00 -1°C° 0 mm 1 m/s 714 mmHg 97%
02:00 -2°C° 0 mm 0 m/s 714 mmHg 97%
03:00 -2°C° 0 mm 0 m/s 713 mmHg 97%
04:00 -2°C° 0 mm 0 m/s 713 mmHg 96%
05:00 -2°C° 0 mm 0 m/s 713 mmHg 96%
06:00 -2°C° 0 mm 0 m/s 712 mmHg 96%
07:00 -2°C° 0 mm 1 m/s 712 mmHg 96%
08:00 -1°C° 0 mm 1 m/s 712 mmHg 94%
09:00 0°C° 0 mm 1 m/s 711 mmHg 92%
10:00 0°C° 0 mm 1 m/s 711 mmHg 90%
11:00 +1°C° 0 mm 1 m/s 710 mmHg 88%
12:00 +1°C° 0 mm 1 m/s 710 mmHg 86%
13:00 +1°C° 0 mm 2 m/s 709 mmHg 83%
14:00 +2°C° 0 mm 1 m/s 708 mmHg 86%
15:00 +1°C° 0 mm 1 m/s 708 mmHg 89%
16:00 +1°C° 0 mm 1 m/s 707 mmHg 91%
17:00 0°C° 0 mm 1 m/s 707 mmHg 92%
18:00 -1°C° 0 mm 1 m/s 706 mmHg 93%
19:00 -2°C° 0 mm 1 m/s 706 mmHg 93%
20:00 -2°C° 0 mm 1 m/s 705 mmHg 93%
21:00 -3°C° 0 mm 0 m/s 705 mmHg 93%
22:00 -3°C° 0 mm 0 m/s 704 mmHg 92%
23:00 -3°C° 0 mm 0 m/s 703 mmHg 92%

4 Décembre, Vendredi

Heure Température Précipitation Vent Pression Humidité
00:00 -1°C° 0 mm 1 m/s 703 mmHg 91%
01:00 -1°C° 0 mm 1 m/s 702 mmHg 91%
02:00 -1°C° 0 mm 1 m/s 701 mmHg 91%
03:00 -2°C° 0 mm 0 m/s 701 mmHg 91%
04:00 -2°C° 0 mm 0 m/s 700 mmHg 90%
05:00 -2°C° 0 mm 0 m/s 700 mmHg 91%
06:00 -2°C° 0 mm 0 m/s 699 mmHg 91%
07:00 -2°C° 0 mm 0 m/s 699 mmHg 91%
08:00 -1°C° 0 mm 0 m/s 699 mmHg 89%
09:00 -1°C° 0 mm 0 m/s 698 mmHg 87%
10:00 0°C° 0 mm 0 m/s 698 mmHg 85%
11:00 +2°C° 0 mm 1 m/s 698 mmHg 84%
12:00 +2°C° 0 mm 1 m/s 697 mmHg 83%
13:00 +3°C° 0 mm 1 m/s 697 mmHg 81%
14:00 +3°C° 0 mm 1 m/s 696 mmHg 85%
15:00 +2°C° 0 mm 1 m/s 696 mmHg 88%
16:00 +1°C° 0 mm 0 m/s 696 mmHg 91%
17:00 0°C° 0 mm 0 m/s 696 mmHg 91%
18:00 0°C° 0 mm 0 m/s 696 mmHg 91%
19:00 0°C° 0 mm 0 m/s 696 mmHg 92%
20:00 0°C° 0 mm 0 m/s 696 mmHg 92%
21:00 0°C° 0 mm 0 m/s 696 mmHg 92%
22:00 -1°C° 0 mm 0 m/s 696 mmHg 92%
23:00 -1°C° 0 mm 0 m/s 696 mmHg 93%

5 Décembre, Samedi

Heure Température Précipitation Vent Pression Humidité
00:00 -1°C° 0 mm 0 m/s 696 mmHg 94%
01:00 -1°C° 0 mm 1 m/s 696 mmHg 94%
02:00 0°C° 0.3 mm 1 m/s 696 mmHg 95%
03:00 0°C° 0.3 mm 1 m/s 696 mmHg 97%
04:00 0°C° 0.3 mm 1 m/s 697 mmHg 98%
05:00 +1°C° 1.3 mm 1 m/s 697 mmHg 98%
06:00 +1°C° 1.3 mm 1 m/s 698 mmHg 98%
07:00 +1°C° 1.3 mm 1 m/s 698 mmHg 98%
08:00 -1°C° 0.8 mm 2 m/s 699 mmHg 98%
09:00 -1°C° 0.8 mm 2 m/s 700 mmHg 98%
10:00 0°C° 0.8 mm 3 m/s 701 mmHg 97%
11:00 +1°C° 0.2 mm 2 m/s 701 mmHg 97%
12:00 +1°C° 0.2 mm 2 m/s 701 mmHg 97%
13:00 +2°C° 0.2 mm 1 m/s 701 mmHg 96%
14:00 +2°C° 0 mm 1 m/s 701 mmHg 96%
15:00 +1°C° 0 mm 1 m/s 701 mmHg 96%
16:00 0°C° 0 mm 0 m/s 701 mmHg 96%
17:00 +1°C° 0.2 mm 1 m/s 702 mmHg 97%
18:00 0°C° 0.2 mm 1 m/s 702 mmHg 97%
19:00 0°C° 0.2 mm 1 m/s 702 mmHg 97%
20:00 0°C° 0.5 mm 1 m/s 703 mmHg 97%
21:00 0°C° 0.5 mm 1 m/s 703 mmHg 98%
22:00 0°C° 0.5 mm 1 m/s 703 mmHg 98%
23:00 0°C° 0.5 mm 1 m/s 704 mmHg 98%

6 Décembre, Dimanche

Heure Température Précipitation Vent Pression Humidité
00:00 0°C° 0.5 mm 1 m/s 704 mmHg 98%
01:00 0°C° 0.5 mm 1 m/s 704 mmHg 98%
02:00 -1°C° 0.3 mm 1 m/s 704 mmHg 98%
03:00 -1°C° 0.3 mm 1 m/s 704 mmHg 98%
04:00 -1°C° 0.3 mm 1 m/s 704 mmHg 98%
05:00 -1°C° 0.4 mm 1 m/s 704 mmHg 98%
06:00 -1°C° 0.4 mm 1 m/s 704 mmHg 98%
07:00 -1°C° 0.4 mm 1 m/s 704 mmHg 98%
08:00 -1°C° 0.2 mm 1 m/s 705 mmHg 97%
09:00 0°C° 0.2 mm 1 m/s 705 mmHg 96%
10:00 0°C° 0.2 mm 1 m/s 705 mmHg 96%
11:00 0°C° 0.1 mm 1 m/s 705 mmHg 95%
12:00 +1°C° 0.1 mm 1 m/s 705 mmHg 93%
13:00 +1°C° 0.1 mm 1 m/s 705 mmHg 92%
14:00 +1°C° 0 mm 1 m/s 706 mmHg 93%
15:00 0°C° 0 mm 1 m/s 706 mmHg 94%
16:00 0°C° 0 mm 1 m/s 706 mmHg 95%
17:00 0°C° 0 mm 1 m/s 707 mmHg 95%
18:00 -1°C° 0 mm 1 m/s 707 mmHg 94%
19:00 -1°C° 0 mm 1 m/s 708 mmHg 94%
20:00 -2°C° 0 mm 1 m/s 709 mmHg 94%
21:00 -2°C° 0 mm 1 m/s 709 mmHg 93%
22:00 -2°C° 0 mm 1 m/s 709 mmHg 93%
23:00 -2°C° 0 mm 1 m/s 710 mmHg 93%
Voir plus

Nous avons besoin de votre consentement

Meteoprog et ses fournisseurs de services peuvent stocker et accéder à des données personnelles telles que des cookies, des identifiants d'appareils ou d'autres technologies similaires sur votre appareil et traiter ces données pour personnaliser le contenu et les publicités, ainsi que pour fournir des fonctionnalités de médias sociaux et analyser le trafic.

  • Stocker et/ou accéder à des informations sur votre appareil

    Des cookies, des identifiants d'appareils ou d'autres informations peuvent être stockés ou accessibles sur votre appareil aux fins indiquées ci-dessus.

  • Annonces et contenus personnalisés, mesure des annonces et des contenus, connaissance de l'audience et développement de produits

    Les annonces et le contenu peuvent être personnalisés en fonction d'un profil. D'autres données peuvent être ajoutées pour mieux personnaliser les annonces et le contenu. Les performances des publicités et du contenu peuvent être mesurées. Il est possible d'obtenir des informations sur le public qui a vu les publicités et le contenu. Ces données peuvent être utilisées pour développer ou améliorer l'expérience de l'utilisateur, les systèmes et les logiciels.

En cliquant sur "J'accepte", vous autorisez l'utilisation de cookies, des identifiants d'appareils, des balises web ou d'autres technologies similaires. Vos paramètres peuvent être modifiés dans le navigateur de votre appareil.

Dans certains cas, des intérêts légitimes peuvent être invoqués plutôt qu'un consentement. Vous pouvez en savoir plus à ce sujet dans notre Politique de confidentialité et de cookies.